KK4KTV-13 Weather Reports


time (UTC)temp
C
wind
direction
speed
KPH
gust
KPH
rain 1hr
cm
rain 24hr
cm
rain mn
cm
humidity
%
barometer
mb
20260901044253 21 255 0.0 0.0 0.00 0.00 0.00 99 1018.8
20260901043749 21 255 0.0 0.0 0.00 0.00 0.00 99 1018.8
20260901043244 21 255 0.0 0.0 0.00 0.00 0.00 99 1018.8
20260901042738 21 255 0.0 0.0 0.00 0.00 0.00 99 1018.9
20260901042238 21 255 0.0 0.0 0.00 0.00 0.00 99 1018.7
20260901041734 21 255 0.0 0.0 0.00 0.00 0.00 99 1018.7
20260901041234 21 255 0.0 0.0 0.00 0.00 0.00 99 1018.8
20260901040729 21 255 0.0 0.0 0.00 0.00 0.00 99 1018.8
20260901040228 21 255 0.0 0.0 0.00 0.00 0.00 99 1018.9
20260901035726 21 255 0.0 0.0 0.00 0.00 0.00 99 1018.7
20260901035220 21 255 0.0 0.0 0.00 0.00 0.00 98 1018.8
20260901034713 22 255 0.0 0.0 0.00 0.00 0.00 99 1018.8
20260901034208 22 255 0.0 0.0 0.00 0.00 0.00 98 1018.8
20260901033708 22 255 0.0 0.0 0.00 0.00 0.00 98 1018.7
20260901033202 22 255 0.0 0.0 0.00 0.00 0.00 99 1019.0
20260901032701 21 257 0.0 0.0 0.00 0.00 0.00 99 1019.0
20260901032155 21 261 0.0 1.6 0.00 0.00 0.00 98 1018.8
20260901031650 21 257 0.0 0.0 0.00 0.00 0.00 98 1019.0
20260901031146 21 257 0.0 0.0 0.00 0.00 0.00 98 1018.7
20260901030640 21 257 0.0 0.0 0.00 0.00 0.00 99 1018.9
20260901030135 21 257 0.0 0.0 0.00 0.00 0.00 98 1018.9
20260901025629 21 257 0.0 0.0 0.00 0.00 0.00 98 1018.8
20260901025124 22 257 0.0 0.0 0.00 0.00 0.00 98 1018.7
20260901024619 21 257 0.0 0.0 0.00 0.00 0.00 98 1018.6
20260901024118 22 257 0.0 0.0 0.00 0.00 0.00 98 1018.7
20260901023617 22 257 0.0 0.0 0.00 0.00 0.00 98 1018.7
20260901023112 22 257 0.0 0.0 0.00 0.00 0.00 97 1018.8
20260901022607 22 257 0.0 0.0 0.00 0.00 0.00 97 1018.7
20260901022102 22 257 0.0 0.0 0.00 0.00 0.00 97 1018.5
20260901021558 22 257 0.0 0.0 0.00 0.00 0.00 97 1018.7
20260901021053 22 257 0.0 0.0 0.00 0.00 0.00 96 1018.5
20260901020548 22 257 0.0 0.0 0.00 0.00 0.00 97 1018.5
20260901020043 22 256 0.0 0.0 0.00 0.00 0.00 97 1018.4
20260901015538 22 256 0.0 0.0 0.00 0.00 0.00 97 1018.5
20260901015033 22 256 0.0 0.0 0.00 0.00 0.00 96 1018.5
20260901014529 22 256 0.0 0.0 0.00 0.00 0.00 97 1018.4
20260901014024 22 256 0.0 0.0 0.00 0.00 0.00 96 1018.2
20260901013520 23 256 0.0 0.0 0.00 0.00 0.00 96 1018.4
20260901013016 23 256 0.0 0.0 0.00 0.00 0.00 96 1018.1
20260901012515 23 256 0.0 0.0 0.00 0.00 0.00 95 1017.9
20260901012011 23 256 0.0 0.0 0.00 0.00 0.00 95 1017.8
20260901011507 23 256 0.0 0.0 0.00 0.00 0.00 94 1017.8
20260901011004 23 256 0.0 0.0 0.00 0.00 0.00 95 1017.8
20260901010501 23 256 0.0 0.0 0.00 0.00 0.00 93 1017.7
20260901005959 23 256 0.0 0.0 0.00 0.00 0.00 92 1017.6
20260901005454 24 256 0.0 0.0 0.00 0.00 0.00 93 1017.3
20260901004949 24 256 0.0 0.0 0.00 0.00 0.00 91 1017.5
20260901004448 25 256 0.0 0.0 0.00 0.00 0.00 91 1017.4
20260901003943 25 256 0.0 0.0 0.00 0.00 0.00 91 1017.5
20260901003438 25 256 0.0 0.0 0.00 0.00 0.00 89 1017.6
20260901002937 25 256 0.0 0.0 0.00 0.00 0.00 90 1017.7
20260901002436 26 256 0.0 0.0 0.00 0.00 0.00 89 1017.5
20260901001930 26 256 0.0 0.0 0.00 0.00 0.00 86 1017.5
20260901001426 26 256 0.0 0.0 0.00 0.00 0.00 86 1017.3
20260901000921 27 256 0.0 0.0 0.00 0.00 0.00 86 1017.4
20260901000416 28 256 0.0 0.0 0.00 0.00 0.00 83 1017.3
20260831235915 29 256 0.0 0.0 0.00 0.00 0.00 78 1017.4
20260831235411 30 256 0.0 0.0 0.00 0.00 0.00 76 1017.5
20260831234906 30 256 0.0 0.0 0.00 0.00 0.00 74 1017.4
20260831234400 31 256 0.0 0.0 0.00 0.00 0.00 69 1017.3
20260831233856 32 256 0.0 0.0 0.00 0.00 0.00 70 1017.4
20260831233351 32 256 0.0 0.0 0.00 0.00 0.00 68 1017.6
20260831232846 31 256 0.0 0.0 0.00 0.00 0.00 69 1017.7
20260831232342 31 256 0.0 0.0 0.00 0.00 0.00 68 1017.7
20260831231838 32 256 0.0 0.0 0.00 0.00 0.00 71 1017.5
20260831231334 32 256 0.0 0.0 0.00 0.00 0.00 64 1017.6
20260831230829 32 255 0.0 0.0 0.00 0.00 0.00 61 1017.6
20260831230324 35 255 0.0 1.6 0.00 0.00 0.00 55 1017.6
20260831225823 35 255 0.0 0.0 0.00 0.00 0.00 59 1017.6
20260831225318 35 255 0.0 0.0 0.00 0.00 0.00 54 1017.7
20260831224814 34 256 0.0 0.0 0.00 0.00 0.00 54 1017.6
20260831224308 34 256 0.0 0.0 0.00 0.00 0.00 49 1017.7
20260831223803 33 263 1.6 1.6 0.00 0.00 0.00 50 1017.7
20260831223300 33 284 1.6 3.2 0.00 0.00 0.00 52 1017.8
20260831222756 33 273 0.0 1.6 0.00 0.00 0.00 59 1017.7
20260831222252 33 299 3.2 3.2 0.00 0.00 0.00 55 1017.9
20260831221748 34 294 0.0 1.6 0.00 0.00 0.00 56 1017.9
20260831221243 33 295 0.0 0.0 0.00 0.00 0.00 53 1017.9
20260831220743 33 282 1.6 3.2 0.00 0.00 0.00 52 1018.1
20260831220238 34 306 0.0 1.6 0.00 0.00 0.00 54 1017.8
20260831215738 33 307 0.0 1.6 0.00 0.00 0.00 60 1017.9
20260831215235 33 328 3.2 4.8 0.00 0.00 0.00 54 1017.9
20260831214731 35 293 3.2 3.2 0.00 0.00 0.00 50 1018.2
20260831214228 36 290 0.0 0.0 0.00 0.00 0.00 44 1017.9
20260831213723 36 250 0.0 0.0 0.00 0.00 0.00 45 1018.2
20260831213220 33 249 0.0 1.6 0.00 0.00 0.00 53 1018.4
20260831212714 33 323 0.0 1.6 0.00 0.00 0.00 49 1018.2
20260831212211 34 320 0.0 0.0 0.00 0.00 0.00 52 1018.4
20260831211709 34 274 0.0 0.0 0.00 0.00 0.00 46 1018.4
20260831211206 33 274 0.0 0.0 0.00 0.00 0.00 55 1018.4
20260831210705 32 273 0.0 0.0 0.00 0.00 0.00 59 1018.5
20260831210202 32 297 0.0 0.0 0.00 0.00 0.00 63 1018.4
20260831205700 32 297 1.6 1.6 0.00 0.00 0.00 56 1018.5
20260831205157 33 299 0.0 3.2 0.00 0.00 0.00 48 1018.4
20260831204656 33 319 0.0 3.2 0.00 0.00 0.00 57 1018.7
20260831204155 33 301 0.0 3.2 0.00 0.00 0.00 59 1018.7
20260831203650 33 290 0.0 0.0 0.00 0.00 0.00 52 1018.4
20260831203149 33 292 0.0 3.2 0.00 0.00 0.00 49 1018.6
20260831202648 33 185 3.2 4.8 0.00 0.00 0.00 49 1018.7
20260831202143 33 176 4.8 6.4 0.00 0.00 0.00 48 1018.7
20260831201636 33 250 0.0 3.2 0.00 0.00 0.00 56 1019.0
20260831201131 33 261 3.2 4.8 0.00 0.00 0.00 49 1018.8
20260831200627 33 223 3.2 3.2 0.00 0.00 0.00 51 1018.6
20260831200122 32 254 1.6 1.6 0.00 0.00 0.00 60 1018.8
20260831195618 32 209 3.2 3.2 0.00 0.00 0.00 53 1018.8
20260831195113 33 236 6.4 9.7 0.00 0.00 0.00 53 1018.8
20260831194607 35 196 3.2 6.4 0.00 0.00 0.00 48 1019.0
20260831194102 33 282 0.0 3.2 0.00 0.00 0.00 61 1019.0
20260831193558 33 241 3.2 6.4 0.00 0.00 0.00 50 1019.1
20260831193057 33 257 0.0 0.0 0.00 0.00 0.00 47 1019.2
20260831192553 33 302 0.0 1.6 0.00 0.00 0.00 54 1019.1
20260831192048 32 313 1.6 3.2 0.00 0.00 0.00 57 1019.2
20260831191544 32 279 4.8 6.4 0.00 0.00 0.00 62 1019.2
20260831191039 32 291 0.0 1.6 0.00 0.00 0.00 56 1019.2
20260831190535 32 300 1.6 3.2 0.00 0.00 0.00 58 1019.2
20260831190033 33 299 1.6 4.8 0.00 0.00 0.00 53 1019.2
20260831185530 32 258 1.6 3.2 0.00 0.00 0.00 50 1019.4
20260831185025 33 257 3.2 4.8 0.00 0.00 0.00 54 1019.4
20260831184524 33 283 0.0 6.4 0.00 0.00 0.00 60 1019.5
20260831184020 32 299 3.2 3.2 0.00 0.00 0.00 60 1019.7
20260831183519 32 269 8.0 12.9 0.00 0.00 0.00 60 1019.5
20260831183018 31 297 1.6 3.2 0.00 0.00 0.00 63 1019.5
20260831182513 31 289 1.6 6.4 0.00 0.00 0.00 63 1019.8
20260831182009 32 277 1.6 3.2 0.00 0.00 0.00 57 1019.9
20260831181504 32 315 0.0 1.6 0.00 0.00 0.00 55 1019.8
20260831180959 31 283 0.0 1.6 0.00 0.00 0.00 62 1019.7
20260831180458 31 252 1.6 3.2 0.00 0.00 0.00 60 1019.8
20260831175958 32 282 3.2 3.2 0.00 0.00 0.00 62 1020.0
20260831175454 32 290 3.2 4.8 0.00 0.00 0.00 63 1019.9
20260831174950 31 318 1.6 4.8 0.00 0.00 0.00 56 1019.9
20260831174440 30 264 3.2 3.2 0.00 0.00 0.00 63 1020.0
20260831173939 31 322 3.2 3.2 0.00 0.00 0.00 67 1020.0
20260831173437 31 283 3.2 6.4 0.00 0.00 0.00 67 1020.2
20260831172934 30 286 1.6 3.2 0.00 0.00 0.00 68 1020.3
20260831172429 30 279 1.6 3.2 0.00 0.00 0.00 65 1020.2
20260831171924 31 309 3.2 4.8 0.00 0.00 0.00 65 1020.2
20260831171420 31 330 6.4 6.4 0.00 0.00 0.00 66 1020.3
20260831170917 31 287 3.2 9.7 0.00 0.00 0.00 68 1020.4
20260831170413 32 280 3.2 4.8 0.00 0.00 0.00 62 1020.3
20260831165909 31 287 1.6 6.4 0.00 0.00 0.00 62 1020.3
20260831165405 32 267 0.0 0.0 0.00 0.00 0.00 60 1020.4
20260831164901 32 222 3.2 6.4 0.00 0.00 0.00 63 1020.6
20260831164357 31 273 0.0 0.0 0.00 0.00 0.00 60 1020.7
20260831163852 31 198 1.6 4.8 0.00 0.00 0.00 65 1020.7
20260831163348 31 267 3.2 6.4 0.00 0.00 0.00 62 1020.6
20260831162846 31 302 8.0 11.3 0.00 0.00 0.00 65 1020.7
20260831162342 31 241 4.8 9.7 0.00 0.00 0.00 67 1020.6
20260831161840 31 286 1.6 4.8 0.00 0.00 0.00 65 1020.7
20260831161337 31 258 3.2 6.4 0.00 0.00 0.00 64 1020.7
20260831160831 31 251 1.6 6.4 0.00 0.00 0.00 66 1020.8
20260831160326 31 273 0.0 0.0 0.00 0.00 0.00 64 1020.7
20260831155821 31 283 0.0 0.0 0.00 0.00 0.00 65 1020.8
20260831155320 31 103 0.0 0.0 0.00 0.00 0.00 62 1020.7
20260831154816 31 293 0.0 1.6 0.00 0.00 0.00 67 1020.8
20260831154313 31 207 3.2 4.8 0.00 0.00 0.00 66 1020.9
20260831153811 31 228 0.0 0.0 0.00 0.00 0.00 65 1020.7
20260831153307 30 246 0.0 0.0 0.00 0.00 0.00 68 1020.9
20260831152803 31 250 0.0 0.0 0.00 0.00 0.00 68 1020.8
20260831152258 30 260 1.6 3.2 0.00 0.00 0.00 65 1020.9
20260831151753 30 241 0.0 0.0 0.00 0.00 0.00 68 1020.8
20260831151252 30 246 0.0 0.0 0.00 0.00 0.00 70 1020.8
20260831150748 30 258 0.0 0.0 0.00 0.00 0.00 72 1020.9
20260831150243 30 251 0.0 0.0 0.00 0.00 0.00 69 1021.0
20260831145742 30 169 3.2 4.8 0.00 0.00 0.00 69 1020.8
20260831145238 30 152 4.8 9.7 0.00 0.00 0.00 69 1020.8
20260831144734 29 215 3.2 6.4 0.00 0.00 0.00 67 1020.8
20260831144230 29 209 4.8 4.8 0.00 0.00 0.00 70 1020.7
20260831143730 28 240 3.2 6.4 0.00 0.00 0.00 70 1020.6
20260831143225 28 286 1.6 4.8 0.00 0.00 0.00 75 1020.6
20260831142721 27 236 3.2 4.8 0.00 0.00 0.00 74 1020.6
20260831142216 28 269 1.6 4.8 0.00 0.00 0.00 75 1020.3
20260831141715 28 287 3.2 3.2 0.00 0.00 0.00 74 1020.5
20260831141210 27 265 3.2 3.2 0.00 0.00 0.00 74 1020.6
20260831140710 27 306 1.6 3.2 0.00 0.00 0.00 75 1020.4
20260831140205 27 285 0.0 3.2 0.00 0.00 0.00 79 1020.4
20260831135702 28 218 1.6 1.6 0.00 0.00 0.00 74 1020.5
20260831135158 28 319 0.0 1.6 0.00 0.00 0.00 74 1020.5
20260831134654 28 358 0.0 0.0 0.00 0.00 0.00 75 1020.7
20260831134150 27 5 0.0 0.0 0.00 0.00 0.00 77 1020.7
20260831133649 26 15 0.0 0.0 0.00 0.00 0.00 79 1020.6
20260831133143 26 15 0.0 1.6 0.00 0.00 0.00 82 1020.6
20260831132639 25 15 0.0 0.0 0.00 0.00 0.00 81 1020.7
20260831132138 25 15 0.0 1.6 0.00 0.00 0.00 83 1020.7
20260831131628 25 15 0.0 1.6 0.00 0.00 0.00 83 1020.7
20260831131125 25 19 0.0 0.0 0.00 0.00 0.00 83 1020.8
20260831130620 25 23 0.0 0.0 0.00 0.00 0.00 85 1020.7
20260831130115 25 23 0.0 0.0 0.00 0.00 0.00 85 1020.5
20260831125613 23 34 0.0 0.0 0.00 0.00 0.00 88 1020.6
20260831125109 22 34 0.0 1.6 0.00 0.00 0.00 91 1020.4
20260831124605 22 30 1.6 1.6 0.00 0.00 0.00 93 1020.6
20260831124101 22 19 1.6 1.6 0.00 0.00 0.00 93 1020.5
20260831123601 22 21 0.0 0.0 0.00 0.00 0.00 91 1020.5
20260831123054 23 23 0.0 0.0 0.00 0.00 0.00 91 1020.4
20260831122548 22 22 0.0 0.0 0.00 0.00 0.00 90 1020.3
20260831122044 21 23 0.0 0.0 0.00 0.00 0.00 93 1020.3
20260831121539 21 23 0.0 0.0 0.00 0.00 0.00 98 1020.0
20260831121035 21 23 0.0 0.0 0.00 0.00 0.00 99 1020.3
20260831120534 20 23 0.0 0.0 0.00 0.00 0.00 99 1020.3
20260831120030 20 22 0.0 0.0 0.00 0.00 0.00 99 1020.3
20260831115526 20 23 0.0 0.0 0.00 0.00 0.00 99 1020.0
20260831115021 20 23 0.0 0.0 0.00 0.00 0.00 99 1019.8
20260831114520 19 23 0.0 0.0 0.00 0.00 0.00 99 1020.0
20260831114016 19 23 0.0 0.0 0.00 0.00 0.00 99 1020.0
20260831113514 19 23 0.0 0.0 0.00 0.00 0.00 99 1019.8
20260831113011 18 23 0.0 0.0 0.00 0.00 0.00 99 1019.9
20260831112509 18 23 0.0 0.0 0.00 0.00 0.00 99 1019.8
20260831112004 18 23 0.0 0.0 0.00 0.00 0.00 99 1019.8
20260831111501 18 23 0.0 0.0 0.00 0.00 0.00 99 1019.7
20260831110956 18 23 0.0 0.0 0.00 0.00 0.00 99 1019.5
20260831110451 18 23 0.0 0.0 0.00 0.00 0.00 99 1019.6
20260831105950 18 23 0.0 0.0 0.00 0.00 0.00 99 1019.4
20260831105446 18 23 0.0 0.0 0.00 0.00 0.00 99 1019.6
20260831104945 18 23 0.0 0.0 0.00 0.00 0.00 99 1019.4
20260831104442 18 23 0.0 0.0 0.00 0.00 0.00 99 1019.3
20260831103937 18 23 0.0 0.0 0.00 0.00 0.00 99 1019.3
20260831103432 18 23 0.0 0.0 0.00 0.00 0.00 99 1019.1
20260831102928 18 23 0.0 0.0 0.00 0.00 0.00 99 1019.2
20260831102428 18 23 0.0 0.0 0.00 0.00 0.00 99 1018.9
20260831101922 18 23 0.0 0.0 0.00 0.00 0.00 99 1019.1
20260831101418 18 23 0.0 0.0 0.00 0.00 0.00 99 1018.9
20260831100914 18 23 0.0 0.0 0.00 0.00 0.00 99 1018.8
20260831100410 19 23 0.0 0.0 0.00 0.00 0.00 99 1018.9
20260831095910 19 23 0.0 0.0 0.00 0.00 0.00 99 1018.9
20260831095409 18 23 0.0 0.0 0.00 0.00 0.00 99 1018.9
20260831094904 19 23 0.0 0.0 0.00 0.00 0.00 99 1018.9
20260831094400 18 23 0.0 0.0 0.00 0.00 0.00 99 1018.8
20260831093856 18 23 0.0 0.0 0.00 0.00 0.00 99 1018.8
20260831093350 18 23 0.0 0.0 0.00 0.00 0.00 99 1018.8
20260831092847 19 23 0.0 0.0 0.00 0.00 0.00 99 1019.0
20260831092342 19 23 0.0 0.0 0.00 0.00 0.00 99 1018.9
20260831091837 19 23 0.0 0.0 0.00 0.00 0.00 99 1018.8
20260831091333 19 23 0.0 0.0 0.00 0.00 0.00 99 1018.9
20260831090828 19 23 0.0 0.0 0.00 0.00 0.00 99 1018.8
20260831090324 19 23 0.0 0.0 0.00 0.00 0.00 99 1018.9
20260831085821 19 23 0.0 0.0 0.00 0.00 0.00 99 1018.9
20260831085315 19 23 0.0 0.0 0.00 0.00 0.00 99 1018.7
20260831084809 19 23 0.0 0.0 0.00 0.00 0.00 99 1018.8
20260831084305 20 23 0.0 0.0 0.00 0.00 0.00 99 1018.7
20260831083801 20 23 0.0 0.0 0.00 0.00 0.00 99 1018.8
20260831083257 20 23 0.0 0.0 0.00 0.00 0.00 99 1018.6
20260831082755 20 23 0.0 0.0 0.00 0.00 0.00 99 1018.9
20260831082245 20 23 0.0 0.0 0.00 0.00 0.00 99 1018.7
20260831081741 20 23 0.0 0.0 0.00 0.00 0.00 99 1018.6
20260831081236 20 23 0.0 0.0 0.00 0.00 0.00 99 1018.7
20260831080732 20 23 0.0 0.0 0.00 0.00 0.00 99 1018.8
20260831080232 20 23 0.0 0.0 0.00 0.00 0.00 99 1018.6
20260831075727 20 23 0.0 0.0 0.00 0.00 0.00 99 1018.5
20260831075223 20 23 0.0 0.0 0.00 0.00 0.00 99 1018.6
20260831074722 20 23 0.0 0.0 0.00 0.00 0.00 99 1018.8
20260831074216 20 25 0.0 0.0 0.00 0.00 0.00 99 1018.8
20260831073712 20 173 0.0 0.0 0.00 0.00 0.00 99 1018.7
20260831073211 20 173 0.0 0.0 0.00 0.00 0.00 99 1018.7
20260831072706 20 173 0.0 0.0 0.00 0.00 0.00 99 1018.8
20260831072203 20 173 0.0 0.0 0.00 0.00 0.00 99 1018.7
20260831071702 20 173 0.0 0.0 0.00 0.00 0.00 99 1018.7
20260831071156 20 172 0.0 0.0 0.00 0.00 0.00 99 1018.8
20260831070650 20 173 0.0 0.0 0.00 0.00 0.00 99 1018.8
20260831070145 20 172 0.0 0.0 0.00 0.00 0.00 99 1018.8
20260831065644 20 34 0.0 0.0 0.00 0.00 0.00 99 1018.9
20260831065138 20 34 0.0 0.0 0.00 0.00 0.00 99 1018.8
20260831064632 20 35 0.0 0.0 0.00 0.00 0.00 99 1018.7
20260831064128 20 35 0.0 0.0 0.00 0.00 0.00 99 1018.6
20260831063624 20 34 0.0 0.0 0.00 0.00 0.00 99 1018.6
20260831063118 21 35 0.0 0.0 0.00 0.00 0.00 99 1018.7
20260831062613 21 35 0.0 0.0 0.00 0.00 0.00 99 1018.7
20260831062112 21 30 0.0 0.0 0.00 0.00 0.00 99 1019.0
20260831061610 21 34 0.0 0.0 0.00 0.00 0.00 99 1018.9
20260831061107 20 34 0.0 0.0 0.00 0.00 0.00 99 1018.8
20260831060602 21 47 0.0 0.0 0.00 0.00 0.00 99 1018.8
20260831060056 21 47 0.0 0.0 0.00 0.00 0.00 99 1019.0
20260831055551 21 47 0.0 0.0 0.00 0.00 0.00 99 1018.9
20260831055047 21 47 0.0 0.0 0.00 0.00 0.00 99 1018.8
20260831054546 20 47 0.0 0.0 0.00 0.00 0.00 98 1019.0
20260831054046 21 47 0.0 0.0 0.00 0.00 0.00 98 1018.9
20260831053544 21 47 0.0 0.0 0.00 0.00 0.00 99 1019.0
20260831053039 21 48 0.0 0.0 0.00 0.00 0.00 99 1018.8
20260831052537 21 46 0.0 0.0 0.00 0.00 0.00 99 1018.7
20260831052032 21 46 0.0 0.0 0.00 0.00 0.00 99 1018.9
20260831051530 21 46 0.0 0.0 0.00 0.00 0.00 98 1018.8
20260831051029 21 46 0.0 0.0 0.00 0.00 0.00 99 1018.8
20260831050524 21 46 0.0 0.0 0.00 0.00 0.00 98 1018.9
20260831050022 21 46 0.0 0.0 0.00 0.00 0.00 98 1018.9
20260831045521 21 46 0.0 0.0 0.00 0.00 0.00 98 1019.0
20260831045017 21 46 0.0 0.0 0.00 0.00 0.00 98 1019.1
20260831044513 21 49 0.0 0.0 0.00 0.00 0.00 98 1018.9